Location: Agadir Mansour Mhndou
(31.2424°N, 8.7730°W)
Time: 18:22:45
(UTC+00:00)

Cosmos 1727 Rocket - Pass Details

Date: 16 October 2021
Orbit: 960 x 997 km, 82.9° (Epoch: 07 December)

Event Time Altitude Azimuth Distance (km) Brightness Sun altitude
Rises 18:16:04 0° 3° (N) 3,669 6.9 -3.8°
Reaches altitude 10° 18:18:44 10° 10° (N) 2,714 6.2 -4.4°
Maximum altitude 18:24:35 43° 80° (E) 1,332 4.3 -5.6°
Drops below altitude 10° 18:30:22 10° 151° (SSE) 2,686 6.1 -6.8°
Sets 18:32:59 0° 158° (SSE) 3,628 6.8 -7.4°
